Location: Asheville, NC
(35.6000°N, 82.5500°W)
Time: 00:30:10
(UTC-04:00)

Vanguard 1 Rocket - Pass Details

Date: 09 March 2018
Orbit: 653 x 4224 km, 34.3° (Epoch: 24 June)

Event Time Altitude Azimuth Distance (km) Brightness Sun altitude
Rises 02:09:44 0° 286° (WNW) 7,065 11.8 -52.7°
Enters shadow 02:11:49 - 284° (WNW) 6,761 11.6 -52.5°
Exits shadow 02:49:20 26° 169° (S) 5,980 11.2 -47.0°
Drops below altitude 10° 02:57:27 10° 156° (SSE) 6,895 11.7 -45.7°
Sets 03:02:41 0° 149° (SSE) 7,581 12.1 -44.9°
